GW2923 Weather Reports


Display with metric or nautical units.
time (UTC)temp
F
wind
direction
speed
MPH
gust
MPH
rain 1hr
in
rain 24hr
in
rain mn
in
humidity
%
barometer
mb
20260505032033 35 234 6.0 12.0 0.00 0.03 0.01 91 999.1
20260505031538 35 226 6.0 12.0 0.00 0.03 0.01 91 999.0
20260505031034 35 232 6.0 11.0 0.00 0.03 0.01 91 999.1
20260505030534 35 228 6.0 12.0 0.00 0.03 0.01 91 999.0
20260505030040 35 224 7.0 12.0 0.00 0.03 0.01 91 999.0
20260505025534 35 210 6.0 12.0 0.00 0.03 0.01 91 999.0
20260505025034 35 201 6.0 14.0 0.00 0.03 0.01 91 999.1
20260505024547 35 211 7.0 14.0 0.00 0.03 0.01 91 999.1
20260505024034 35 206 7.0 13.0 0.00 0.03 0.01 91 999.2
20260505023534 35 199 8.0 14.0 0.00 0.03 0.01 91 999.1
20260505023047 35 217 7.0 14.0 0.01 0.03 0.01 91 999.1
20260505022534 35 187 7.0 13.0 0.01 0.03 0.01 91 999.0
20260505022034 35 213 8.0 13.0 0.01 0.03 0.01 91 999.0
20260505021545 35 188 8.0 13.0 0.01 0.03 0.01 90 999.0
20260505021033 35 186 7.0 13.0 0.01 0.03 0.01 90 999.1
20260505020533 35 208 8.0 12.0 0.01 0.03 0.01 90 999.2
20260505020046 35 208 8.0 12.0 0.01 0.03 0.01 89 999.3
20260505015534 36 236 6.0 11.0 0.01 0.03 0.01 89 999.4
20260505015034 36 226 6.0 13.0 0.01 0.03 0.01 89 999.4
20260505014546 36 241 7.0 13.0 0.00 0.02 0.00 88 999.4
20260505014036 36 215 7.0 12.0 0.00 0.02 0.00 88 999.4
20260505013534 36 241 7.0 13.0 0.00 0.02 0.00 88 999.4
20260505013045 36 217 7.0 13.0 0.00 0.01 0.00 88 999.3
20260505012534 37 238 9.0 18.0 0.00 0.01 0.00 88 999.4
20260505012034 37 222 10.0 18.0 0.00 0.01 0.00 89 999.3
20260505011543 36 219 6.0 11.0 0.00 0.01 0.00 89 999.3
20260505011033 36 186 7.0 11.0 0.00 0.01 0.00 90 999.2
20260505010535 36 205 8.0 11.0 0.00 0.01 0.00 91 999.2
20260505010045 36 199 8.0 11.0 0.00 0.01 0.00 92 999.3
20260505005534 36 195 6.0 8.0 0.00 0.01 0.00 93 999.2
20260505005034 36 209 5.0 8.0 0.00 0.01 0.00 93 999.4
20260505004548 36 248 4.0 8.0 0.00 0.01 0.00 93 999.5
20260505004034 36 228 3.0 8.0 0.00 0.01 0.00 93 999.2
20260505003533 36 255 3.0 10.0 0.00 0.01 0.00 93 999.2
20260505003047 36 232 6.0 10.0 0.00 0.01 0.00 93 999.1
20260505002533 36 233 6.0 10.0 0.00 0.01 0.00 93 999.1
20260505002034 36 214 5.0 10.0 0.00 0.01 0.00 93 998.9
20260505001550 36 249 5.0 10.0 0.00 0.01 0.00 93 998.9
20260505001029 36 238 6.0 11.0 0.00 0.01 0.00 93 998.9
20260505000533 36 251 5.0 12.0 0.00 0.01 0.00 93 998.7
20260505000052 36 234 7.0 12.0 0.00 0.01 0.00 93 998.7
20260504235534 36 224 5.0 10.0 0.00 0.01 0.00 93 998.9
20260504235034 36 223 5.0 10.0 0.00 0.01 0.00 93 998.9
20260504234557 36 216 4.0 8.0 0.00 0.01 0.00 93 998.6
20260504234033 35 253 3.0 9.0 0.00 0.01 0.00 93 998.7
20260504233533 36 205 4.0 9.0 0.00 0.01 0.00 93 998.7
20260504233049 36 210 4.0 9.0 0.00 0.01 0.00 93 999.0
20260504232533 36 240 3.0 7.0 0.00 0.01 0.00 93 999.0
20260504232031 36 259 3.0 8.0 0.00 0.01 0.00 92 998.9
20260504231557 36 249 5.0 8.0 0.00 0.01 0.00 92 998.8
20260504231033 36 234 3.0 8.0 0.00 0.01 0.00 92 998.8
20260504230530 36 237 4.0 8.0 0.00 0.01 0.00 92 998.7
20260504230046 36 241 2.0 7.0 0.00 0.01 0.00 92 998.6
20260504225533 36 264 3.0 8.0 0.00 0.01 0.00 92 998.8
20260504225033 36 265 4.0 8.0 0.00 0.01 0.00 92 998.9
20260504224543 36 215 4.0 7.0 0.00 0.01 0.00 92 999.0
20260504224033 36 249 3.0 9.0 0.00 0.01 0.00 92 999.1
20260504223536 36 239 4.0 10.0 0.00 0.01 0.00 92 999.3
20260504223042 36 224 4.0 10.0 0.00 0.01 0.00 91 999.3
20260504222530 36 195 6.0 10.0 0.00 0.01 0.00 91 999.4
20260504222037 36 240 3.0 8.0 0.00 0.01 0.00 91 999.5
20260504221545 36 227 3.0 7.0 0.00 0.01 0.00 91 999.3
20260504221029 36 244 5.0 7.0 0.00 0.01 0.00 91 999.3
20260504220534 36 213 4.0 6.0 0.00 0.01 0.00 90 999.3
20260504220039 37 221 3.0 6.0 0.00 0.01 0.00 90 999.1
20260504215534 37 219 3.0 6.0 0.00 0.01 0.00 90 999.1
20260504215036 37 214 3.0 6.0 0.00 0.01 0.00 90 999.1
20260504214545 37 220 4.0 7.0 0.00 0.01 0.00 90 999.1
20260504214033 37 219 5.0 8.0 0.00 0.01 0.00 90 999.1
20260504213530 37 217 4.0 8.0 0.00 0.01 0.00 90 999.2
20260504213044 37 214 4.0 8.0 0.00 0.01 0.00 90 999.1
20260504212532 37 230 4.0 8.0 0.00 0.01 0.00 89 999.1
20260504212033 38 220 5.0 8.0 0.00 0.01 0.00 89 999.1
20260504211552 38 246 4.0 9.0 0.00 0.01 0.00 89 999.2
20260504211038 39 218 4.0 12.0 0.00 0.01 0.00 89 999.3
20260504210538 39 254 5.0 12.0 0.00 0.01 0.00 90 999.3
20260504210107 39 253 4.0 10.0 0.00 0.01 0.00 90 999.3
20260504205539 39 271 6.0 10.0 0.00 0.01 0.01 90 999.1
20260504205041 39 257 6.0 11.0 0.00 0.01 0.01 90 999.2
20260504204600 39 251 5.0 11.0 0.00 0.01 0.01 90 999.2
20260504204038 39 266 4.0 10.0 0.00 0.01 0.01 90 999.1
20260504203538 39 260 6.0 10.0 0.00 0.01 0.01 90 999.1
20260504203053 40 256 3.0 10.0 0.00 0.01 0.01 89 999.0
20260504202538 40 243 5.0 10.0 0.00 0.01 0.01 89 999.0
20260504202038 40 295 5.0 11.0 0.00 0.01 0.01 89 999.0
20260504201550 40 264 8.0 11.0 0.00 0.01 0.01 89 998.8
20260504201038 40 263 7.0 10.0 0.00 0.01 0.01 90 998.7
20260504200539 40 260 5.0 10.0 0.00 0.01 0.01 90 998.7
20260504200051 40 263 5.0 10.0 0.00 0.01 0.01 90 998.8
20260504195538 40 275 6.0 10.0 0.00 0.01 0.01 90 998.7
20260504195038 40 255 5.0 12.0 0.00 0.01 0.01 90 998.9
20260504194605 40 234 5.0 13.0 0.00 0.01 0.01 90 998.8
20260504194038 40 268 9.0 13.0 0.00 0.01 0.01 90 998.7
20260504193538 40 254 6.0 15.0 0.00 0.01 0.01 90 998.6
20260504193058 41 238 6.0 15.0 0.00 0.01 0.01 90 998.6
20260504192538 41 245 8.0 15.0 0.00 0.01 0.01 90 998.6
20260504192038 41 272 6.0 13.0 0.00 0.01 0.01 90 998.5
20260504191550 41 217 5.0 14.0 0.00 0.01 0.01 90 998.6
20260504191038 41 261 6.0 16.0 0.00 0.01 0.01 90 998.8
20260504190538 41 256 7.0 16.0 0.00 0.01 0.01 90 998.9
20260504190117 41 255 8.0 15.0 0.00 0.01 0.01 90 998.9
20260504185537 41 238 9.0 15.0 0.00 0.01 0.01 89 998.9
20260504185038 41 258 8.0 15.0 0.00 0.01 0.01 89 998.8
20260504184557 41 253 8.0 15.0 0.01 0.01 0.01 89 998.7
20260504184038 41 274 5.0 9.0 0.01 0.01 0.01 89 998.6
20260504183538 41 229 3.0 14.0 0.01 0.01 0.01 89 998.6
20260504183053 42 241 4.0 14.0 0.01 0.01 0.01 89 998.6
20260504182538 42 248 6.0 13.0 0.01 0.01 0.01 89 998.7
20260504182038 42 228 5.0 10.0 0.01 0.01 0.01 88 998.6
20260504181545 42 263 5.0 11.0 0.01 0.01 0.01 88 998.7
20260504181030 42 243 4.0 11.0 0.01 0.01 0.01 87 998.6
20260504180534 42 247 5.0 10.0 0.01 0.01 0.01 87 998.6
20260504180138 42 241 5.0 10.0 0.01 0.01 0.01 86 998.4
20260504175534 42 222 5.0 11.0 0.01 0.01 0.01 85 998.2
20260504175036 43 217 7.0 16.0 0.00 0.00 0.00 84 998.5
20260504174545 43 213 9.0 16.0 0.00 0.00 0.00 82 998.6
20260504174036 43 202 10.0 15.0 0.00 0.00 0.00 81 998.6
20260504173533 43 195 9.0 15.0 0.00 0.00 0.00 80 998.4
20260504173053 43 224 9.0 14.0 0.00 0.00 0.00 81 998.5
20260504172612 43 241 7.0 15.0 0.00 0.00 0.00 80 998.6
20260504172534 43 241 7.0 15.0 0.00 0.00 0.00 80 998.6
20260504172029 43 226 7.0 15.0 0.00 0.00 0.00 80 998.6
20260504171540 43 247 8.0 14.0 0.00 0.00 0.00 80 998.6
20260504171030 43 225 9.0 14.0 0.00 0.00 0.00 80 998.6
20260504170532 44 216 8.0 15.0 0.00 0.00 0.00 80 998.6
20260504151032 45 205 10.0 19.0 0.00 0.00 0.00 73 998.9
20260504150533 46 201 10.0 19.0 0.00 0.00 0.00 70 999.0
20260504141034 49 247 12.0 19.0 0.00 0.00 0.00 60 998.9
20260504140533 49 220 11.0 19.0 0.00 0.00 0.00 59 999.0
20260504130536 52 228 10.0 17.0 0.00 0.00 0.00 51 999.2
20260504120107 51 222 8.0 18.0 0.00 0.00 0.00 47 999.9
20260504110535 52 199 7.0 13.0 0.00 0.00 0.00 37 1000.5
20260504100529 52 222 7.0 11.0 0.00 0.00 0.00 37 1001.2
20260504081539 47 231 6.0 11.0 0.00 0.00 0.00 43 1002.6
20260504081035 47 213 3.0 11.0 0.00 0.00 0.00 42 1002.5
20260504080533 47 195 6.0 11.0 0.00 0.00 0.00 42 1002.6
20260504050534 31 0 0.0 0.0 0.00 0.00 0.00 84 1004.5
20260504050104 31 0 0.0 0.0 0.00 0.00 0.00 85 1004.7
20260504045533 31 0 0.0 0.0 0.00 0.00 0.00 86 1004.8
20260504045032 30 0 0.0 0.0 0.00 0.00 0.00 86 1004.8
20260504044542 30 0 0.0 0.0 0.00 0.00 0.00 87 1004.9
20260504044033 29 0 0.0 0.0 0.00 0.00 0.00 87 1004.9
20260504043534 29 0 0.0 0.0 0.00 0.00 0.00 87 1005.0
20260504043043 29 0 0.0 0.0 0.00 0.00 0.00 88 1005.1
20260504042533 28 0 0.0 0.0 0.00 0.00 0.00 88 1005.1
20260504042033 28 0 0.0 0.0 0.00 0.00 0.00 88 1005.2
20260504041541 27 0 0.0 0.0 0.00 0.00 0.00 88 1005.3
20260504041033 27 0 0.0 0.0 0.00 0.00 0.00 89 1005.3
20260504040533 26 0 0.0 0.0 0.00 0.00 0.00 88 1005.3
20260504040042 25 0 0.0 0.0 0.00 0.00 0.00 88 1005.4
20260504035533 24 0 0.0 0.0 0.00 0.00 0.00 88 1005.4
20260504035035 24 0 0.0 0.0 0.00 0.00 0.00 88 1005.4
20260504034550 24 0 0.0 0.0 0.00 0.00 0.00 89 1005.5
20260504034036 23 0 0.0 0.0 0.00 0.00 0.00 90 1005.5
20260504033540 22 0 0.0 0.0 0.00 0.00 0.00 90 1005.4
20260504033045 22 0 0.0 1.0 0.00 0.00 0.00 91 1005.5
20260504032533 21 0 0.0 1.0 0.00 0.00 0.00 90 1005.6